Torna al catalogo

STARLINK-11324

AttivoComunicazioniVLEO
NORAD 61879·PAYLOAD·🇺🇸 United States

Lanciato Nov 9, 2024 da Vandenberg Space Force Base

Loading…

Prossimi Passaggi (prossime 24 ore)

TLE

AggiornatoSource: CelesTrak SupGP

Epoca: Sep 15, 2026, 03:40 UTC

1 61879C 24204F   26258.15326389  .00068336  00000+0  56272-3 0  2581
2 61879  53.1562 142.3913 0001026  84.3360 162.7433 15.69683158    10

Traccia STARLINK-11324 in tempo reale con AllMySat

Download on the App Store